Bolivar-Sucre, Bolivia

7:53 PM -04 on November 19, 2019 (GMT -0400)
Bolivar-Sucre

Weather History for 85406 - October, 2019

Change the Weather History Date:

Tuesday, October 15, 2019

  Actual Average Record
Temperature  
Mean Temperature 66 °F -  
Max Temperature 70 °F 68 °F - ()
Min Temperature 61 °F 60 °F - ()
Cooling Degree Days 1    
Growing Degree Days 16 (Base 50)    
Moisture  
Dew Point 55 °F    
Average Humidity 68    
Maximum Humidity 77    
Minimum Humidity 47    
Precipitation  
Precipitation 0.00 in 0.00 in - ()
Sea Level Pressure  
Sea Level Pressure 29.98 in    
Wind  
Wind Speed 5 mph ()    
Max Wind Speed 15 mph    
Max Gust Speed -    
Visibility 7.6 miles    
Events      
T = Trace of Precipitation, MM = Missing Value Source: Averaged Metar Reports

Daily Weather History Graph

Daily Weather History Graph

Search for Another Location

Airport or City:

Astronomy

Oct. 15, 2019 Rise Set
Actual Time 6:12 AM -04 6:42 PM -04
Civil Twilight 5:50 AM -04 7:04 PM -04
Nautical Twilight 5:24 AM -04 7:30 PM -04
Astronomical Twilight 4:58 AM -04 7:56 PM -04
Moon 8:22 PM -04 (10/15) 7:27 AM -04 (10/15)
Length of Visible Light 13h 14m
Length of Day
12h 29m
Full, 97% of the Moon is Illuminated
Oct 15
Full
Oct 21
Last Quarter
Oct 27
New
Nov 4
First Quarter
Nov 12
Full

Hourly Weather History & Observations

Time (-04) Temp. Dew Point Humidity Pressure Visibility Wind Dir Wind Speed Gust Speed Precip Events Conditions
12:00 AM 64.4 °F 57.2 °F 77% 30.01 in 6.2 mi NW 2.3 mph - N/A   Mostly Cloudy
1:00 AM 64.4 °F 57.2 °F 77% 29.98 in 6.2 mi NNW 2.3 mph - N/A   Overcast
2:00 AM 65 °F 57 °F 69% 29.97 in 6 mi West 4.6 mph - -   Partly Cloudy
2:00 AM 64.4 °F 57.2 °F 77% 29.95 in 6.2 mi West 4.6 mph - N/A   Overcast
3:00 AM 64.4 °F 57.2 °F 77% 29.95 in 6.2 mi SSW 3.5 mph - N/A   Overcast
4:00 AM 64.4 °F 57.2 °F 77% 29.95 in 6.2 mi Calm Calm - N/A   Overcast
5:00 AM 64.4 °F 57.2 °F 77% 29.95 in 6.2 mi South 2.3 mph - N/A   Overcast
6:00 AM 64.4 °F 55.4 °F 73% 29.95 in 6.2 mi SE 3.5 mph - N/A   Overcast
7:00 AM 64.4 °F 53.6 °F 68% 29.98 in 6.2 mi East 4.6 mph - N/A   Overcast
8:00 AM 64 °F 55 °F 65% 29.99 in 12 mi SSE 2.3 mph - -   Partly Cloudy
8:00 AM 64.4 °F 55.4 °F 73% 29.98 in 6.2 mi SSE 2.3 mph - N/A   Overcast
9:00 AM 64.4 °F 55.4 °F 73% 30.01 in 6.2 mi SSW 4.6 mph - N/A   Scattered Clouds
10:00 AM 66.2 °F 53.6 °F 64% 30.01 in 6.2 mi SW 4.6 mph - N/A   Mostly Cloudy
11:00 AM 69.8 °F 53.6 °F 56% 30.01 in 6.2 mi SSW 5.8 mph - N/A   Scattered Clouds
12:00 PM 68.0 °F 53.6 °F 60% 29.98 in 6.2 mi WSW 11.5 mph - N/A   Partly Cloudy
1:00 PM 69.8 °F 53.6 °F 56% 29.98 in - SW 11.5 mph - N/A   Clear
2:00 PM 69 °F 53 °F 47% 29.98 in 25 mi SSW 15.0 mph - -   Partly Cloudy
2:00 PM 68.0 °F 53.6 °F 60% 29.98 in - SSW 15.0 mph - N/A   Clear
3:00 PM 68.0 °F 51.8 °F 56% 29.95 in - SSW 13.8 mph - N/A   Clear
4:00 PM 68.0 °F 57.2 °F 68% 29.95 in - SSW 11.5 mph - N/A   Clear
5:00 PM 66 °F 55 °F 60% 29.97 in 12 mi SW 9.2 mph - -   Partly Cloudy
5:00 PM 66.2 °F 55.4 °F 68% 29.95 in - SW 9.2 mph - N/A   Clear
6:00 PM 66.2 °F 57.2 °F 73% 29.98 in - SW 9.2 mph - N/A   Clear
7:00 PM 64.4 °F 57.2 °F 77% 30.01 in - SW 5.8 mph - N/A   Clear
8:00 PM 63 °F 56 °F 70% 30.02 in 25 mi Calm Calm - -   Partly Cloudy
8:00 PM 62.6 °F 55.4 °F 77% 30.01 in - Variable 1.2 mph - N/A   Clear
9:00 PM 62.6 °F 55.4 °F 77% 30.04 in - SW 2.3 mph - N/A   Clear
11:00 PM 61 °F 52 °F 65% 30.05 in 19 mi East 3.5 mph - -   Partly Cloudy